Temp
1 0 -0 -1 -1 -1 -1 -2 -2 -2 -3 -3 -3 -4 -4 -4 -5 -6 -6 -7 -8 -7 -6 -6 -8 -8 -8 -8 -8 -8 -8 -7 -8 -8 -7 -6 -6 -5 -5 -4 -3 -3 -4 -4 -3 -1 0 2 5 5 7 9 10 10
0 0 -0 -0 -1 -1 -1 -1 -2 -2 -2 -3 -3 -3 -4 -4 -5 -5 -6 -6 -7 -7 -6 -6 -6 -6 -7 -7 -7 -8 -8 -8 -7 -7 -7 -7 -6 -6 -5 -5 -4 -4 -4 -2 -2 -1 1 2 4 6 6 8 9 11
0 0 -0 -0 -1 -0 -0 -1 -1 -2 -2 -3 -3 -2 -4 -4 -5 -5 -5 -6 -7 -6 -5 -6 -6 -6 -5 -6 -6 -6 -6 -7 -7 -7 -8 -7 -7 -6 -6 -5 -5 -5 -4 -4 -3 -2 -2 0 3 4 5 7 9 10
0 0 -0 -0 -0 -0 -0 -1 -1 -1 -2 -2 -2 -2 -2 -3 -3 -4 -5 -5 -6 -6 -6 -5 -5 -5 -4 -5 -5 -6 -7 -6 -7 -7 -7 -7 -7 -6 -6 -6 -6 -5 -5 -4 -4 -3 -1 0 3 4 5 7 8 9
0 0 -0 -0 -0 0 -0 -0 -1 -1 -1 -1 -1 -1 -1 -3 -3 -4 -4 -5 -5 -5 -5 -5 -5 -5 -5 -5 -5 -5 -5 -6 -6 -7 -7 -7 -7 -7 -6 -6 -3 -3 -3 -3 -2 -1 -2 1 2 2 4 7 8 8
1 0 -0 -0 0 1 0 0 -0 -0 -0 -0 -0 -0 -0 -2 -3 -4 -3 -5 -5 -6 -6 -5 -5 -5 -5 -5 -5 -5 -5 -5 -6 -6 -5 -6 -5 -6 -6 -5 -3 -4 -4 -3 -3 -2 -1 1 1 1 3 3 6 7
1 1 0 0 1 1 0 0 0 -0 -0 0 0 -0 1 -0 -1 -3 -4 -5 -4 -5 -6 -5 -4 -5 -5 -5 -5 -5 -5 -5 -5 -6 -6 -6 -5 -5 -5 -5 -2 -3 -4 -3 -4 -3 -2 -1 1 1 2 3 5 7
1 1 1 1 2 1 1 1 0 -0 0 0 1 1 1 0 1 -1 -2 -3 -4 -4 -4 -4 -4 -4 -4 -4 -5 -5 -5 -5 -5 -5 -5 -5 -5 -5 -5 -2 -2 -3 -2 -3 -3 -2 -1 0 0 2 2 3 5 5
1 1 1 1 2 1 1 0 0 1 1 0 1 1 1 0 -0 -1 -2 -3 -3 -4 -4 -4 -4 -4 -4 -4 -4 -4 -5 -5 -5 -5 -4 -4 -4 -3 -2 -1 -0 -0 0 -0 -1 -0 1 0 -0 2 3 4 4 6
1 1 1 1 1 1 1 1 1 1 1 -0 1 1 0 0 -1 -1 -2 -2 -2 -3 -3 -3 -3 -3 -3 -3 -3 -3 -4 -4 -3 -3 -3 -3 -3 -2 -1 0 -0 0 1 0 0 0 0 0 1 4 3 2 4 5
2 2 2 1 1 1 1 1 2 2 2 0 1 -0 0 -0 -1 -2 -2 -2 -2 -2 -2 -2 -2 -2 -2 -2 -3 -3 -3 -3 -2 -2 -3 -3 -3 -2 -2 -1 0 0 0 -0 -0 -0 -0 0 1 2 2 3 4 4
2 2 2 1 1 1 1 2 2 2 0 1 1 0 -1 -2 -2 -2 -2 -2 -2 -2 -2 -2 -2 -1 -2 -2 -2 -2 -2 -2 -2 -3 -3 -4 -3 -3 -2 -1 -1 0 -0 -0 -0 1 1 1 0 1 1 1 1 2
2 2 1 1 1 1 1 1 2 3 1 1 1 -1 -2 -2 -2 -3 -3 -2 -2 -2 -1 -1 -1 -1 -1 -1 -2 -2 -2 -2 -2 -3 -4 -3 -4 -3 -3 -2 -1 -1 -0 0 0 0 0 0 0 -0 0 0 0 1
2 2 1 1 1 0 -0 1 2 2 2 -1 -2 -2 -3 -3 -3 -2 -2 -1 -2 -1 -1 0 1 -0 -0 -1 -1 -2 -2 -2 -3 -4 -4 -4 -4 -3 -3 -3 -2 -2 -2 -1 -1 -1 -1 -0 -0 -0 -1 -1 -1 -1
2 2 2 1 1 0 0 1 2 3 2 -1 -2 -3 -3 -3 -2 -1 -1 -0 -0 -1 -0 1 0 -0 -0 -1 -2 -2 -2 -2 -3 -4 -4 -4 -4 -3 -3 -2 -2 -2 -3 -2 -2 -2 -2 -1 -1 -1 -1 -1 -2 -1
2 2 2 1 1 0 1 1 2 3 1 -1 -2 -2 -1 -1 -0 0 1 1 1 0 0 1 -0 -1 -2 -2 -2 -3 -3 -3 -4 -3 -4 -3 -4 -3 -3 -3 -3 -2 -2 -2 -2 -2 -2 -2 -2 -2 -2 -2 -1 -1
2 2 2 2 1 0 1 2 3 2 -2 -3 -3 -2 -2 -1 -1 -1 -0 1 1 1 1 0 -2 -3 -3 -4 -4 -4 -4 -4 -3 -4 -3 -3 -4 -4 -4 -3 -3 -3 -3 -3 -3 -3 -2 -2 -2 -1 -1 -1 -2 -2
2 2 2 1 1 0 1 2 2 -1 -2 -3 -3 -2 -2 -2 -2 -1 -1 -0 0 1 1 -1 -3 -4 -5 -6 -5 -5 -4 -4 -3 -4 -4 -4 -4 -4 -4 -4 -3 -3 -3 -3 -3 -3 -3 -3 -2 -2 -3 -3 -3 -2
1 1 1 1 1 1 1 0 -0 -1 -2 -2 -2 -2 -2 -2 -2 -2 -2 -2 -1 -0 0 -3 -5 -6 -6 -5 -5 -4 -4 -4 -4 -4 -4 -4 -4 -4 -4 -4 -4 -4 -4 -3 -3 -2 -3 -3 -3 -3 -3 -3 -3 -3
1 1 1 1 1 1 -0 -1 -1 -2 -2 -3 -3 -3 -2 -2 -2 -3 -2 -2 -2 -1 -3 -6 -6 -6 -6 -6 -5 -5 -4 -4 -5 -5 -5 -5 -5 -5 -5 -5 -4 -4 -5 -5 -5 -5 -4 -4 -4 -3 -3 -3 -4 -4
1 1 1 0 0 0 -0 -1 -1 -1 -2 -2 -3 -3 -3 -3 -2 -3 -3 -3 -3 -5 -6 -6 -6 -6 -6 -6 -5 -5 -5 -5 -5 -6 -6 -6 -6 -6 -6 -7 -6 -6 -6 -5 -5 -5 -5 -5 -5 -4 -4 -4 -4 -4
1 1 1 1 0 -0 -0 -1 -1 -1 -1 -2 -2 -2 -2 -2 -2 -3 -3 -4 -6 -6 -6 -6 -6 -7 -7 -6 -6 -5 -5 -5 -6 -6 -7 -7 -7 -7 -7 -6 -6 -6 -6 -6 -6 -5 -5 -5 -5 -5 -6 -6 -6 -6
2 1 1 1 0 0 -0 -1 -1 -1 -1 -2 -1 -2 -2 -2 -2 -2 -4 -5 -6 -6 -6 -7 -7 -7 -7 -8 -7 -7 -6 -6 -6 -6 -6 -6 -6 -7 -7 -7 -7 -7 -7 -6 -6 -6 -6 -6 -6 -7 -7 -7 -7 -7
1 1 1 1 1 0 -0 -0 -1 -1 -1 -1 -1 -1 -1 -2 -2 -2 -3 -4 -5 -6 -6 -6 -6 -6 -7 -7 -7 -6 -6 -6 -6 -6 -6 -7 -7 -7 -7 -8 -8 -8 -8 -7 -7 -7 -7 -8 -8 -8 -8 -8 -8 -8
1 1 1 1 1 0 0 -0 -0 -1 -1 -1 -1 -1 -1 -1 -2 -2 -3 -4 -4 -5 -5 -5 -6 -6 -6 -7 -7 -7 -7 -6 -6 -6 -7 -7 -7 -7 -8 -8 -8 -8 -8 -9 -9 -9 -9 -9 -9 -9 -9 -8 -8 -8
1 1 1 1 1 1 1 0 0 -0 -0 -0 -1 -1 -1 -2 -2 -3 -3 -3 -4 -4 -5 -6 -6 -6 -6 -7 -7 -7 -7 -7 -7 -7 -7 -7 -7 -7 -7 -8 -8 -9 -9 -9 -9 -9 -9 -10 -9 -9 -9 -8 -8 -8
1 1 1 1 1 1 1 1 0 0 0 -0 -0 -1 -1 -2 -2 -3 -3 -3 -3 -4 -5 -6 -6 -6 -6 -6 -6 -6 -7 -7 -7 -7 -7 -7 -7 -7 -8 -8 -9 -9 -9 -9 -10 -10 -11 -10 -10 -10 -9 -9 -9 -9
1 1 1 1 1 0 0 0 0 0 -0 -0 -1 -1 -1 -2 -2 -2 -3 -3 -3 -4 -5 -5 -6 -6 -6 -6 -6 -7 -7 -7 -8 -8 -8 -8 -8 -8 -8 -8 -9 -9 -9 -10 -11 -11 -11 -11 -11 -11 -10 -10 -10 -10
1 1 1 1 1 1 1 1 0 0 0 -0 -0 -1 -1 -2 -2 -3 -3 -4 -4 -4 -4 -6 -6 -6 -6 -6 -7 -7 -7 -8 -8 -8 -9 -9 -9 -9 -9 -9 -9 -10 -10 -10 -11 -11 -11 -11 -11 -11 -11 -11 -10 -10
1 1 1 1 1 1 1 1 0 0 0 -0 -0 -1 -1 -1 -2 -3 -3 -3 -4 -4 -4 -5 -6 -6 -6 -7 -7 -7 -8 -8 -8 -9 -9 -9 -9 -9 -9 -9 -10 -10 -10 -11 -11 -11 -11 -11 -11 -11 -11 -11 -11 -11
2 1 1 1 1 1 1 1 1 1 0 -0 -0 -0 -1 -1 -1 -2 -3 -3 -4 -4 -5 -5 -6 -6 -6 -7 -7 -7 -8 -8 -9 -9 -9 -9 -9 -9 -9 -10 -10 -10 -10 -10 -11 -11 -11 -11 -11 -11 -11 -11 -11 -11
2 1 2 2 1 1 1 1 1 1 0 0 -0 -0 -1 -1 -1 -1 -2 -3 -4 -4 -5 -5 -6 -6 -7 -7 -7 -8 -8 -9 -9 -9 -10 -10 -10 -10 -10 -10 -10 -10 -10 -11 -11 -11 -11 -11 -11 -11 -11 -11 -12 -12
1 1 1 1 1 1 1 1 1 1 0 -0 -0 -0 -1 -1 -1 -2 -2 -3 -4 -5 -5 -5 -6 -6 -7 -7 -8 -8 -8 -9 -9 -9 -9 -10 -10 -10 -10 -10 -10 -11 -11 -11 -11 -11 -11 -11 -12 -12 -12 -12 -12 -12
Height
3130 3126 3121 3114 3109 3103 3096 3090 3083 3078 3071 3063 3054 3047 3039 3032 3027 3023 3021 3019 3016 3010 3007 3005 3003 3000 2999 2998 2998 3000 2999 2997 2998 3000 3001 3001 3000 3000 2997 2997 2997 2999 2999 2999 3002 2998 2994 2997 3003 3004 3007 3006 3009 3012
3126 3122 3116 3111 3105 3099 3091 3086 3079 3074 3067 3059 3050 3042 3035 3027 3022 3018 3015 3014 3012 3007 3004 3000 2998 2996 2994 2993 2993 2993 2995 2995 2996 2996 2997 2996 2995 2993 2992 2990 2990 2990 2989 2991 2989 2982 2985 2989 2990 2995 2998 3004 3005 3006
3122 3117 3111 3106 3101 3094 3086 3081 3076 3070 3062 3054 3046 3038 3030 3023 3015 3013 3010 3009 3007 3004 3002 2998 2996 2992 2988 2988 2989 2989 2990 2990 2991 2992 2992 2992 2991 2988 2986 2983 2981 2980 2980 2976 2980 2971 2973 2978 2984 2986 2990 2996 3000 3001
3118 3112 3105 3101 3096 3089 3083 3078 3072 3065 3058 3050 3043 3034 3026 3019 3012 3008 3006 3005 3004 3001 2998 2996 2991 2989 2987 2986 2987 2987 2987 2986 2988 2987 2987 2987 2985 2982 2976 2974 2972 2973 2970 2968 2964 2963 2966 2969 2974 2978 2981 2987 2992 2994
3113 3107 3100 3095 3091 3085 3079 3074 3068 3060 3054 3047 3039 3031 3022 3016 3011 3006 3003 3002 3000 3001 2995 2991 2988 2987 2985 2985 2983 2983 2983 2983 2982 2982 2981 2978 2975 2973 2966 2962 2949 2955 2956 2955 2946 2957 2956 2961 2968 2970 2974 2979 2985 2987
3108 3102 3095 3089 3084 3080 3075 3071 3063 3055 3050 3043 3036 3029 3021 3014 3010 3005 3003 3000 2999 2996 2993 2987 2984 2982 2983 2983 2982 2982 2981 2979 2977 2976 2973 2969 2968 2966 2955 2942 2936 2939 2938 2939 2936 2943 2946 2950 2956 2962 2966 2970 2977 2983
3104 3097 3091 3084 3079 3075 3072 3066 3058 3051 3045 3040 3033 3026 3021 3015 3011 3006 3003 3000 2996 2994 2991 2986 2984 2983 2982 2982 2981 2980 2977 2976 2974 2971 2964 2960 2957 2954 2941 2928 2918 2923 2921 2923 2927 2932 2935 2943 2948 2956 2960 2967 2972 2976
3100 3093 3086 3081 3076 3071 3068 3061 3055 3047 3042 3037 3030 3025 3020 3016 3012 3008 3004 3000 2995 2993 2991 2989 2987 2983 2982 2980 2978 2975 2973 2970 2967 2963 2957 2952 2946 2940 2926 2908 2902 2898 2905 2911 2916 2921 2930 2941 2947 2951 2956 2964 2967 2970
3095 3089 3083 3078 3074 3069 3064 3058 3052 3046 3040 3035 3029 3026 3021 3017 3013 3009 3005 3002 2999 2998 2994 2992 2989 2986 2983 2980 2976 2973 2971 2967 2963 2959 2954 2948 2941 2933 2918 2907 2898 2897 2896 2905 2914 2921 2931 2938 2941 2950 2954 2961 2960 2964
3092 3086 3081 3076 3072 3067 3062 3057 3051 3046 3040 3034 3029 3025 3022 3019 3015 3012 3007 3003 3000 2999 2996 2995 2992 2989 2986 2981 2978 2975 2972 2969 2965 2965 2957 2952 2946 2937 2926 2921 2915 2910 2908 2914 2920 2925 2931 2933 2935 2944 2949 2952 2953 2959
3089 3084 3079 3075 3071 3066 3062 3057 3051 3046 3041 3035 3030 3027 3024 3020 3017 3013 3011 3007 3005 3003 3003 3000 2996 2992 2990 2985 2982 2979 2977 2974 2971 2971 2965 2960 2950 2943 2935 2927 2922 2918 2922 2924 2923 2928 2934 2938 2935 2945 2950 2955 2959 2961
3088 3083 3078 3074 3070 3065 3061 3057 3051 3047 3041 3035 3034 3032 3029 3024 3022 3020 3017 3015 3012 3012 3009 3007 3004 3000 2995 2991 2990 2987 2985 2984 2982 2980 2974 2972 2969 2954 2946 2940 2935 2932 2933 2932 2932 2937 2940 2944 2944 2949 2953 2958 2960 2962
3088 3083 3079 3075 3071 3067 3063 3058 3053 3051 3048 3039 3036 3033 3031 3032 3029 3027 3024 3023 3021 3019 3015 3013 3010 3006 3002 2999 2997 2996 2994 2994 2993 2989 2989 2991 2984 2974 2965 2958 2950 2945 2944 2946 2947 2948 2950 2952 2953 2955 2957 2958 2960 2963
3089 3085 3081 3077 3072 3069 3066 3064 3059 3054 3047 3038 3038 3038 3038 3039 3038 3035 3032 3029 3027 3024 3022 3019 3014 3010 3007 3004 3003 3003 3004 3003 3004 3003 3004 3001 2995 2991 2985 2978 2972 2967 2963 2961 2961 2961 2960 2962 2964 2963 2964 2966 2969 2969
3091 3087 3084 3081 3077 3073 3072 3070 3065 3057 3049 3044 3048 3052 3050 3047 3044 3040 3037 3035 3033 3030 3026 3024 3020 3018 3014 3012 3011 3012 3013 3014 3017 3016 3015 3009 3008 3004 2998 2993 2990 2987 2983 2979 2978 2978 2975 2974 2976 2976 2976 2978 2976 2976
3093 3090 3088 3084 3081 3078 3077 3074 3069 3061 3054 3055 3060 3061 3058 3054 3051 3047 3042 3039 3037 3036 3032 3027 3025 3026 3025 3025 3024 3023 3025 3025 3027 3024 3022 3020 3017 3013 3008 3005 3001 2998 2995 2995 2994 2992 2990 2990 2990 2988 2989 2988 2988 2989
3095 3093 3090 3088 3085 3083 3081 3077 3069 3062 3063 3067 3067 3066 3063 3059 3055 3051 3049 3043 3039 3038 3034 3031 3031 3034 3036 3037 3034 3032 3032 3033 3030 3028 3027 3025 3022 3019 3016 3014 3011 3009 3007 3004 3002 3000 2998 2995 2994 2992 2990 2988 2988 2989
3098 3095 3092 3090 3088 3086 3083 3080 3073 3073 3072 3073 3072 3071 3067 3065 3062 3058 3054 3052 3049 3044 3039 3036 3041 3040 3042 3044 3042 3040 3038 3036 3034 3032 3031 3028 3026 3023 3021 3018 3016 3013 3011 3009 3007 3007 3005 3004 3001 2998 2997 2997 2999 2998
3100 3097 3095 3092 3090 3089 3087 3084 3082 3079 3079 3077 3077 3076 3073 3069 3066 3062 3058 3055 3051 3047 3044 3043 3046 3048 3049 3048 3046 3044 3042 3039 3037 3035 3032 3029 3027 3025 3022 3019 3017 3015 3012 3010 3007 3005 3004 3003 3001 3001 3000 2999 2997 2994
3101 3099 3097 3095 3093 3091 3088 3087 3085 3084 3083 3082 3080 3078 3075 3072 3069 3065 3061 3057 3054 3049 3046 3049 3052 3053 3052 3050 3047 3045 3042 3039 3037 3035 3033 3030 3027 3024 3022 3020 3016 3013 3010 3009 3007 3006 3005 3003 3001 2999 2998 2997 2996 2996
3102 3100 3099 3097 3096 3093 3092 3091 3089 3087 3085 3083 3082 3080 3078 3075 3072 3067 3063 3060 3055 3053 3054 3055 3055 3054 3051 3049 3047 3044 3041 3038 3036 3034 3031 3028 3025 3022 3019 3016 3014 3012 3010 3008 3005 3002 3000 2999 2997 2996 2994 2993 2992 2991
3101 3100 3099 3098 3097 3095 3094 3093 3091 3089 3087 3085 3082 3081 3079 3077 3074 3070 3067 3062 3059 3059 3058 3057 3055 3053 3051 3048 3046 3043 3039 3036 3032 3030 3028 3025 3023 3020 3017 3014 3011 3008 3005 3002 3000 2998 2996 2994 2992 2991 2990 2989 2988 2986
3101 3100 3099 3098 3098 3096 3097 3094 3092 3090 3088 3086 3084 3082 3080 3078 3075 3072 3068 3065 3063 3061 3059 3057 3055 3052 3049 3045 3042 3040 3037 3034 3031 3028 3025 3022 3019 3016 3013 3010 3008 3006 3003 3001 2998 2996 2993 2990 2988 2986 2985 2983 2983 2982
3100 3100 3099 3098 3098 3097 3096 3094 3092 3091 3089 3087 3084 3082 3080 3078 3077 3074 3070 3067 3064 3061 3059 3056 3054 3051 3048 3044 3041 3038 3035 3031 3028 3024 3022 3019 3017 3015 3012 3009 3005 3003 3001 2998 2995 2992 2990 2989 2988 2986 2984 2983 2981 2979
3101 3101 3100 3099 3098 3097 3095 3093 3092 3091 3089 3087 3085 3084 3082 3079 3077 3074 3072 3069 3065 3062 3059 3056 3053 3050 3046 3042 3038 3034 3031 3028 3025 3022 3019 3016 3013 3011 3009 3007 3005 3002 3000 2997 2994 2992 2990 2988 2986 2984 2982 2980 2980 2978
3100 3100 3100 3099 3098 3097 3095 3094 3092 3091 3089 3087 3086 3084 3082 3080 3078 3076 3073 3069 3066 3063 3059 3055 3052 3048 3044 3040 3035 3031 3027 3024 3021 3018 3015 3013 3010 3008 3005 3003 3001 2999 2997 2995 2993 2991 2989 2988 2986 2984 2982 2980 2978 2975
3102 3101 3101 3100 3099 3098 3096 3094 3093 3091 3089 3088 3086 3084 3083 3081 3079 3077 3073 3069 3065 3061 3057 3054 3050 3046 3042 3038 3034 3029 3024 3020 3017 3015 3011 3008 3006 3003 3001 2999 2997 2996 2994 2992 2990 2989 2987 2986 2984 2982 2980 2978 2977 2975
3104 3103 3103 3102 3100 3099 3097 3095 3093 3091 3090 3088 3087 3085 3083 3081 3079 3076 3071 3068 3064 3060 3056 3052 3048 3045 3040 3036 3031 3026 3022 3018 3014 3010 3008 3005 3002 2999 2997 2995 2993 2991 2990 2988 2987 2985 2984 2983 2981 2980 2978 2976 2975 2973
3104 3104 3103 3102 3101 3099 3097 3096 3094 3092 3090 3088 3085 3083 3081 3079 3077 3074 3071 3068 3064 3060 3055 3050 3046 3042 3038 3033 3028 3024 3020 3017 3014 3010 3007 3004 3001 2999 2996 2993 2991 2989 2987 2985 2984 2983 2981 2980 2979 2977 2975 2974 2972 2971
3104 3103 3102 3101 3100 3098 3097 3095 3093 3091 3088 3086 3084 3081 3079 3077 3075 3071 3069 3066 3063 3058 3054 3049 3044 3039 3035 3031 3026 3021 3017 3014 3011 3009 3006 3003 3000 2997 2995 2992 2989 2987 2985 2984 2982 2980 2979 2977 2976 2974 2973 2971 2970 2969
3102 3102 3101 3100 3098 3097 3095 3093 3090 3088 3086 3083 3081 3079 3076 3073 3071 3068 3064 3061 3059 3055 3051 3046 3041 3037 3032 3028 3023 3019 3015 3011 3008 3006 3004 3001 2999 2996 2993 2991 2988 2986 2984 2982 2981 2979 2977 2976 2974 2973 2971 2970 2969 2968
3100 3099 3098 3096 3095 3094 3092 3090 3088 3086 3083 3080 3078 3076 3073 3070 3067 3065 3062 3059 3056 3052 3047 3043 3038 3033 3029 3025 3020 3016 3013 3010 3007 3004 3002 3000 2997 2994 2992 2989 2987 2985 2983 2981 2979 2978 2976 2975 2973 2972 2970 2969 2968 2967
3097 3096 3095 3093 3092 3091 3089 3087 3084 3082 3080 3077 3076 3074 3071 3069 3065 3062 3059 3056 3052 3048 3043 3039 3034 3030 3026 3022 3018 3014 3011 3008 3005 3003 3001 2998 2996 2993 2991 2988 2986 2983 2981 2979 2977 2976 2974 2973 2971 2969 2968 2966 2965 2963
Wind_Speed
29 29 29 29 30 31 33 35 36 37 38 40 41 41 39 33 26 21 24 20 23 25 15 17 21 24 22 21 19 16 18 8 6 7 6 7 8 9 12 14 12 15 13 18 24 21 27 21 31 28 15 14 12 12
30 30 29 29 30 31 34 35 37 37 39 39 40 43 41 33 30 22 24 20 21 26 24 13 14 17 17 13 15 19 17 10 7 7 8 7 9 10 11 13 13 24 30 20 21 25 13 17 32 28 35 40 31 20
30 31 30 29 29 31 34 35 36 37 38 38 40 43 43 35 33 18 20 18 19 24 15 11 16 19 17 11 14 12 6 7 11 10 16 15 17 18 14 17 18 18 20 31 35 43 33 34 25 28 34 32 27 34
29 30 32 30 29 31 34 35 35 36 37 38 40 43 44 36 27 15 15 13 15 21 20 13 8 10 8 8 6 5 9 9 9 10 14 20 23 19 26 26 26 23 21 24 32 38 41 39 39 28 27 27 27 20
29 30 31 32 30 31 33 34 35 37 37 38 39 41 39 34 29 16 8 10 10 16 23 21 9 11 7 5 5 7 6 9 11 16 18 23 25 28 33 34 42 34 32 34 43 33 38 37 33 40 38 32 27 17
30 30 30 31 30 29 31 33 35 37 36 35 36 35 35 32 29 18 11 9 9 10 16 20 10 9 8 11 9 9 10 16 20 23 26 31 30 31 28 40 47 39 33 30 37 31 33 36 39 26 29 34 28 25
30 31 30 30 29 27 29 32 34 34 32 32 32 31 23 29 33 28 18 13 10 11 13 11 7 12 6 3 7 8 11 13 15 23 32 35 35 38 49 55 27 33 35 25 25 24 29 31 33 27 23 29 30 30
31 31 28 27 25 26 27 30 28 29 29 27 30 27 19 24 24 27 18 15 14 13 10 10 12 12 12 11 13 15 17 18 24 29 34 37 38 32 36 39 38 40 15 20 24 25 22 23 28 26 26 29 24 26
29 28 25 22 22 25 26 24 26 25 27 27 25 18 19 26 22 20 18 16 16 16 10 15 19 12 19 14 14 13 18 20 16 21 24 19 22 11 44 35 34 14 13 15 16 21 21 25 35 20 32 28 31 28
27 25 22 20 20 23 22 23 22 24 24 25 18 15 18 18 24 20 17 20 16 17 17 24 19 17 18 18 16 14 10 10 10 15 25 18 33 35 24 26 19 21 20 15 11 19 23 21 22 40 33 26 24 26
25 24 20 19 21 19 16 20 25 23 22 19 17 19 13 15 20 16 18 11 14 10 28 30 28 26 27 24 18 17 12 12 13 23 22 36 56 43 32 26 33 23 16 12 8 22 25 22 24 26 24 22 22 23
25 21 19 19 18 15 17 18 24 20 21 13 12 7 17 14 11 12 15 14 13 18 29 23 24 24 24 21 17 18 13 14 11 29 24 34 54 48 54 32 40 31 25 29 30 34 32 27 18 14 20 22 22 21
22 20 19 18 18 19 18 19 18 12 21 33 28 10 8 13 17 17 20 24 21 24 22 20 19 19 17 16 12 13 13 11 15 20 16 40 52 52 53 54 50 46 43 33 26 27 24 25 21 22 25 23 23 23
22 20 17 19 21 18 17 19 18 21 25 21 26 25 15 11 13 21 21 19 18 20 21 20 26 26 19 14 12 7 13 12 15 20 31 36 46 47 47 45 46 46 45 42 42 34 35 34 33 35 33 34 34 34
21 18 16 17 18 16 16 17 22 30 41 34 18 16 30 27 22 18 17 17 12 15 21 25 28 26 18 16 13 11 9 10 14 30 30 37 39 42 43 37 36 37 39 43 38 38 35 33 35 30 31 29 30 28
19 17 14 16 17 15 11 12 20 29 41 39 30 29 30 28 24 23 18 8 6 5 13 20 11 17 30 12 13 15 11 11 20 25 28 32 33 33 36 38 37 33 33 31 28 26 25 28 27 26 23 23 21 18
16 17 14 14 14 11 8 13 23 29 30 27 28 27 26 28 27 24 24 20 10 4 8 11 10 10 7 21 21 19 15 15 15 20 23 25 25 26 28 27 27 27 27 29 28 26 21 17 13 9 8 14 17 15
13 16 16 13 12 11 13 17 23 23 27 24 25 25 25 25 25 24 23 14 9 9 15 28 25 29 13 23 27 28 27 24 18 18 20 17 20 19 22 23 23 23 23 22 22 20 18 17 17 18 17 16 11 8
12 15 15 11 10 12 12 17 17 18 19 18 17 21 24 24 25 24 19 15 12 9 8 13 13 25 22 18 17 16 16 17 17 17 15 15 13 16 19 21 17 17 21 22 22 22 20 17 15 12 11 9 9 10
9 10 12 13 13 13 12 15 14 12 11 13 14 17 21 24 25 25 21 16 11 12 23 25 20 16 16 17 18 18 16 14 12 12 11 10 10 14 16 18 21 22 22 21 19 18 18 17 15 13 11 10 9 7
8 7 8 10 13 15 12 13 14 14 12 11 11 12 14 19 24 25 22 19 21 27 23 19 16 14 15 17 19 19 16 12 9 7 7 9 13 15 17 19 19 19 19 20 21 20 19 16 14 12 11 10 10 9
8 7 5 7 8 9 12 10 11 12 15 13 9 8 12 17 22 24 20 20 21 19 18 16 14 13 16 18 19 17 14 13 13 13 13 13 15 17 18 19 20 21 21 21 21 19 18 16 13 9 7 7 7 8
7 6 4 5 5 7 6 11 10 11 14 13 11 11 13 17 21 21 21 18 16 17 14 14 14 16 17 20 22 19 15 13 12 11 11 13 15 16 17 17 18 18 19 18 17 16 15 14 13 12 11 11 12 12
4 3 4 4 5 5 7 8 9 10 9 13 12 11 16 15 16 19 21 17 13 14 14 15 15 16 17 18 20 20 18 17 16 14 11 10 11 12 13 14 16 16 16 16 16 15 13 11 11 11 12 13 14 14
4 2 2 3 3 5 6 8 8 8 8 10 11 12 14 15 14 14 18 15 12 12 14 15 17 18 19 20 21 22 20 18 16 14 13 13 14 13 13 12 12 11 11 11 10 10 10 10 10 11 12 12 11 11
3 3 2 3 5 6 6 7 7 8 9 9 10 11 12 11 9 11 16 15 13 12 16 19 20 21 23 23 23 22 22 21 19 18 16 14 12 11 11 12 12 13 12 10 9 8 7 7 9 11 13 14 14 13
5 4 6 7 8 9 9 8 8 7 7 6 8 9 8 7 6 12 15 17 16 16 18 20 23 25 25 25 24 22 22 22 21 20 19 18 16 14 14 13 13 12 11 10 9 8 7 9 10 11 11 10 8 7
5 6 6 7 9 10 9 9 8 6 7 7 8 8 6 8 12 15 18 21 23 22 21 22 24 26 27 27 26 24 22 21 21 21 20 19 18 17 17 17 16 15 13 11 9 9 9 10 10 10 10 9 8 7
6 7 5 6 9 11 12 13 12 11 11 12 13 13 13 11 11 13 15 19 23 24 24 23 25 27 27 27 27 25 21 19 18 18 17 17 16 16 15 15 14 13 11 10 9 9 10 10 11 12 12 10 9 7
6 6 7 9 11 13 14 15 14 14 14 14 15 15 14 13 14 12 15 17 21 24 25 25 26 27 27 27 27 24 21 19 17 16 16 17 16 15 14 13 13 12 11 10 10 10 11 12 12 13 12 11 9 8
10 10 11 12 13 13 15 17 18 18 17 17 16 16 18 17 17 17 20 15 20 24 27 26 26 26 26 26 25 22 20 18 16 15 16 16 16 15 15 14 13 12 11 11 11 11 12 11 11 11 10 9 8 8
8 9 13 15 12 13 17 17 16 18 20 17 15 15 18 20 20 19 21 18 20 25 28 27 26 25 25 24 22 19 18 16 15 14 15 15 16 16 16 15 14 12 12 11 11 11 11 11 10 10 9 9 9 9
14 12 13 11 13 16 18 18 19 21 21 16 14 16 16 19 20 19 19 19 21 27 27 26 24 23 23 22 20 18 16 15 14 13 14 15 16 15 15 15 15 15 15 14 13 12 12 11 11 11 11 11 11 11
Wind_Direction
327 330 333 332 332 332 330 331 334 338 339 339 337 338 341 336 326 299 305 307 307 315 347 330 311 303 294 283 276 284 299 284 230 228 235 243 242 238 245 242 234 229 215 216 223 238 242 228 228 240 239 210 230 256
324 326 330 334 332 330 325 328 331 337 337 336 334 340 342 338 325 308 296 309 299 308 325 318 308 312 302 301 270 268 259 246 222 216 226 232 245 249 255 265 256 242 230 233 223 232 214 206 215 225 242 249 258 263
323 325 327 330 333 329 325 327 334 337 336 334 335 341 340 338 325 309 299 303 292 301 349 5 341 314 312 282 251 263 291 258 263 270 252 258 262 271 259 261 262 258 242 241 248 243 243 232 224 224 227 238 253 263
325 324 323 327 329 325 326 331 336 334 335 333 336 339 339 341 349 334 319 314 294 292 303 3 325 336 320 296 270 274 261 264 260 264 265 266 266 273 266 270 269 257 249 246 253 249 253 243 217 218 221 227 245 252
327 325 322 322 326 325 328 333 334 333 334 333 335 339 341 341 349 355 346 341 313 286 295 324 309 321 296 284 274 278 263 246 256 261 261 266 275 278 283 282 272 269 270 258 256 252 251 249 232 232 232 216 234 248
334 330 325 322 321 323 328 333 333 333 333 335 338 343 343 349 358 11 10 352 340 333 315 325 326 297 290 289 286 288 293 281 271 276 277 276 280 279 274 273 285 282 281 265 256 257 243 239 233 233 232 232 228 228
340 335 333 328 324 325 330 334 334 333 332 338 344 345 339 349 1 13 5 351 2 359 343 343 6 352 296 287 301 293 291 290 283 276 272 278 283 282 281 279 307 292 282 255 247 242 222 214 228 230 215 220 225 204
334 337 336 332 330 332 337 339 340 334 339 345 345 348 345 349 0 10 17 16 19 18 11 358 353 358 1 318 289 286 281 281 284 286 290 292 293 283 274 322 329 317 283 213 220 202 218 207 225 231 209 209 178 194
337 339 337 336 336 337 344 349 346 347 349 350 339 352 13 18 12 12 9 18 35 31 19 8 360 352 356 348 342 315 292 295 306 294 311 304 298 306 346 11 16 7 192 206 176 173 192 210 216 204 186 176 158 169
340 340 339 339 341 344 351 355 354 358 1 355 3 19 16 5 8 12 8 6 12 24 24 22 19 13 7 4 358 339 334 330 333 357 354 351 7 24 36 53 18 73 84 112 143 215 187 178 178 160 153 154 164 170
344 344 344 346 348 355 358 360 3 360 353 358 23 27 11 6 18 17 12 9 21 27 18 21 18 12 19 13 9 6 353 356 2 5 30 27 23 43 35 59 79 114 93 77 121 140 140 142 107 132 140 142 150 163
348 348 353 360 2 7 359 4 6 17 14 48 45 7 47 25 24 19 2 12 14 16 17 24 25 36 24 15 18 8 17 20 27 35 43 31 35 45 51 68 78 89 93 105 104 112 116 113 120 134 118 127 131 127
358 3 9 15 20 19 21 16 16 29 55 62 52 37 29 29 31 21 15 25 28 33 42 28 18 21 28 26 25 23 31 29 39 33 39 41 37 36 40 49 53 78 90 91 102 95 106 108 114 112 118 113 110 109
6 14 25 26 20 26 42 50 59 70 71 60 41 37 33 28 32 37 34 23 36 58 56 52 47 41 34 27 25 27 22 44 47 40 41 38 38 36 37 36 45 48 54 74 78 68 75 88 86 81 81 80 89 96
12 24 30 31 28 48 70 65 57 66 65 58 49 42 41 42 34 34 24 24 55 83 88 86 70 60 52 41 30 23 40 34 48 52 45 47 40 37 40 43 42 46 48 54 53 46 52 80 78 74 76 73 66 69
17 29 32 32 39 48 57 62 51 62 62 57 53 45 41 42 40 37 31 19 35 122 97 91 64 55 48 33 38 40 49 49 49 45 35 37 42 33 37 43 47 47 46 55 59 53 48 48 48 57 65 72 73 63
24 30 35 40 44 34 44 44 58 57 55 55 45 38 41 41 37 38 38 40 43 98 118 87 59 53 21 36 36 36 60 59 51 54 39 26 25 28 28 33 39 44 48 51 54 56 54 45 33 18 36 43 38 45
29 25 22 28 37 38 51 42 61 63 64 54 42 36 37 39 35 33 31 33 19 46 84 77 70 62 56 39 32 31 32 29 30 37 13 38 15 11 10 17 22 24 27 32 35 35 39 42 41 47 44 44 35 30
24 24 25 25 24 21 30 38 45 62 58 54 43 35 33 35 32 28 24 21 21 29 112 77 63 53 42 28 21 17 12 12 19 19 6 10 5 356 350 346 359 10 4 358 354 356 3 5 10 15 21 23 16 13
17 28 30 27 22 23 37 29 37 39 35 38 32 24 22 25 24 20 21 28 34 45 65 70 65 52 35 23 13 7 2 360 4 2 350 348 342 337 335 336 335 338 346 347 348 350 348 350 352 353 354 356 359 352
355 349 354 5 15 30 43 38 39 29 24 17 13 14 12 12 13 19 27 32 44 55 55 49 40 27 11 360 355 353 347 330 314 316 322 321 312 319 326 328 328 329 329 331 334 336 339 338 338 337 334 331 325 321
337 347 353 353 339 4 21 17 23 25 26 17 22 25 17 15 15 17 19 29 43 39 34 27 20 11 358 346 348 353 344 336 326 318 308 301 299 303 304 307 312 318 324 328 331 333 338 343 344 341 335 327 323 322
332 347 333 341 334 347 353 358 10 10 18 14 21 25 16 14 14 13 17 18 17 19 18 12 359 351 352 347 349 353 355 352 345 333 318 310 310 317 324 325 324 325 326 328 332 338 341 340 341 341 337 335 333 330
334 331 360 352 335 336 338 352 357 354 358 9 18 18 11 3 3 11 12 10 5 358 355 358 359 357 352 343 338 346 351 351 350 347 339 333 328 325 323 322 325 331 335 336 339 340 341 341 340 337 334 332 331 333
355 359 331 341 346 338 330 329 335 351 0 6 8 7 360 358 356 2 0 360 3 0 359 2 1 358 353 348 343 343 348 349 346 346 343 339 332 329 329 327 325 331 340 346 344 341 342 345 347 346 343 340 338 340
14 20 31 6 4 352 348 353 355 359 6 10 8 3 2 356 358 345 354 351 351 3 12 8 4 360 356 352 346 344 343 344 348 349 348 343 338 336 338 341 344 345 346 345 347 351 353 345 339 335 329 328 331 336
35 55 50 43 32 20 11 5 2 6 6 5 2 359 4 357 347 359 6 6 359 358 1 356 2 359 355 351 347 345 343 342 344 345 346 347 348 348 346 345 345 344 345 347 353 350 342 335 334 337 338 340 341 343
41 39 34 27 25 17 3 357 350 340 338 336 332 339 333 345 358 5 10 9 6 0 353 351 354 351 349 348 347 346 344 342 343 346 348 349 350 348 345 343 343 343 343 345 342 336 335 338 344 349 349 347 347 351
1 353 341 348 346 345 350 355 351 341 329 335 331 318 316 323 330 342 350 353 355 353 350 346 344 344 343 343 344 342 341 343 345 345 349 352 351 347 342 339 338 339 340 340 338 338 338 340 344 348 348 348 350 352
358 351 347 352 351 343 340 330 328 326 330 322 311 315 318 324 323 328 337 332 339 344 344 342 338 336 336 339 340 339 338 341 344 346 349 352 353 354 353 350 348 347 345 344 340 336 335 339 343 345 347 347 350 353
307 308 312 317 317 327 335 335 334 335 334 328 328 324 328 323 321 317 322 339 336 336 339 338 332 332 332 335 339 337 337 339 340 342 348 352 353 355 355 354 352 349 349 347 344 342 340 338 337 340 342 344 346 348
325 320 325 319 325 326 326 328 333 338 340 338 336 334 335 331 332 335 332 331 337 335 333 331 329 329 330 333 336 336 337 339 339 339 344 349 352 353 353 353 352 351 348 347 345 342 340 338 339 340 338 338 339 338
308 311 327 322 321 328 327 323 326 331 335 335 339 340 342 341 340 335 331 333 333 332 328 328 327 328 330 334 336 338 342 343 341 340 344 349 353 355 354 352 348 346 344 342 339 336 333 331 331 331 329 327 325 323